This is the latest recevied weather packets stored in our database for station/object NZ3C. If no packets are shown the sender has not sent any weather packets the latest 10 day(s).
| Time | Temp. | Humidity | Pressure | Rain* | Wind** | Luminosity | Snow |
|---|---|---|---|---|---|---|---|
| 1777221086 | 13.89° C | 93% | 1016.4 hPa | 0 mm | - | 206 W/m² | - |
| 1777220786 | 13.89° C | 94% | 1016.5 hPa | 0 mm | - | 245 W/m² | - |
| 1777220481 | 13.89° C | 94% | 1016.4 hPa | 0 mm | - | 144 W/m² | - |
| 1777220177 | 13.89° C | 94% | 1016.4 hPa | 0 mm | - | 273 W/m² | - |
| 1777219873 | 13.89° C | 94% | 1016.3 hPa | 0 mm | - | 194 W/m² | - |
| 1777219571 | 13.89° C | 93% | 1016.5 hPa | 0 mm | - | 202 W/m² | - |
| 1777219268 | 13.89° C | 92% | 1016.3 hPa | 0 mm | - | 188 W/m² | - |
| 1777218963 | 13.89° C | 93% | 1016.2 hPa | 0 mm | - | 188 W/m² | - |
| 1777218659 | 13.89° C | 93% | 1016.2 hPa | 0 mm | - | 189 W/m² | - |
| 1777218355 | 13.89° C | 93% | 1016 hPa | 0 mm | - | 218 W/m² | - |
| 1777218051 | 13.89° C | 93% | 1016.1 hPa | 0 mm | - | 223 W/m² | - |
| 1777217746 | 13.89° C | 95% | 1016 hPa | 0 mm | - | 173 W/m² | - |
| 1777217443 | 13.89° C | 94% | 1016.1 hPa | 0 mm | - | 111 W/m² | - |
| 1777217139 | 13.89° C | 94% | 1016.1 hPa | 0 mm | - | 104 W/m² | - |
| 1777216835 | 13.89° C | 94% | 1016 hPa | 0 mm | - | 147 W/m² | - |
| 1777216532 | 13.89° C | 95% | 1015.8 hPa | 0 mm | - | 203 W/m² | - |
| 1777216228 | 13.89° C | 95% | 1015.8 hPa | 0 mm | - | 189 W/m² | - |
| 1777215926 | 13.89° C | 94% | 1015.6 hPa | 0 mm | - | 169 W/m² | - |
| 1777215622 | 13.89° C | 95% | 1015.8 hPa | 0 mm | - | 125 W/m² | - |
| 1777215318 | 13.89° C | 95% | 1015.8 hPa | 0 mm | - | 83 W/m² | - |
| 1777215015 | 13.89° C | 95% | 1015.6 hPa | 0 mm | - | 136 W/m² | - |
| 1777214714 | 13.89° C | 94% | 1015.7 hPa | 0 mm | - | 67 W/m² | - |
| 1777214413 | 14.44° C | 95% | 1015.7 hPa | 0 mm | - | 89 W/m² | - |
| 1777214108 | 14.44° C | 95% | 1015.3 hPa | 1.27 mm | - | 52 W/m² | - |
| 1777213803 | 14.44° C | 95% | 1015.3 hPa | 1.27 mm | - | 59 W/m² | - |
* Rain latest hour (hover to see other rain measurements)
** Current wind speed in m/s (hover to see current wind gust speed)